Location: Perryvale
(54.4667°N, 113.3833°W)
Time: 19:52:18
(UTC+00:00)

SR - Pass Details

Date: 23 May 2024
Orbit: 580 x 858 km, 66.7° (Epoch: 19 June)

Event Time Altitude Azimuth Distance (km) Brightness Sun altitude
Rises 04:51:16 0° 284° (WNW) 3,079 ? -7.5°
Reaches altitude 10° 04:54:18 10° 302° (WNW) 2,107 ? -7.8°
Maximum altitude 04:57:42 19° 348° (NNW) 1,529 ? -8.1°
Drops below altitude 10° 05:00:58 10° 35° (NE) 1,999 ? -8.3°
Sets 05:03:45 0° 54° (NE) 2,868 ? -8.6°
